Location: Hopkins Observatory
(42.6965°N, 73.1843°W)
Time: 03:29:41
(UTC-04:00)

UOSAT-12 - Visible Passes

Search period start: 24 October 2017 00:00
Search period end: 03 November 2017 00:00
Orbit: 596 x 657 km, 64.6° (Epoch: 23 October)

Date Brightness Start Highest point End Pass type
(mag) Time Alt. Az. Time Alt. Az. Time Alt. Az.
24 Oct 8.7 05:24:13 10° S 05:28:18 34° ESE 05:32:29 10° NE visible
25 Oct 7.3 05:43:24 10° SSW 05:47:56 74° ESE 05:52:35 10° NE visible
26 Oct 9.5 04:26:46 17° SE 04:28:04 19° ESE 04:31:17 10° ENE visible
26 Oct 7.3 06:04:08 15° SW 06:07:45 53° NW 06:12:21 10° NNE visible
27 Oct 8.2 04:47:13 39° SE 04:47:34 40° ESE 04:51:54 10° NE visible
27 Oct 8.1 06:24:34 14° W 06:27:47 28° NW 06:31:49 10° NNE visible
28 Oct 7.1 05:07:26 82° ENE 05:07:26 82° ENE 05:11:55 10° NE visible
28 Oct 8.8 06:45:01 10° WNW 06:47:59 17° NW 06:51:00 10° N visible
29 Oct 10.1 03:50:07 13° ENE 03:50:07 13° ENE 03:50:51 10° ENE visible
29 Oct 7.5 05:27:27 45° NW 05:27:27 45° NW 05:31:36 10° NNE visible
30 Oct 9.7 04:10:00 18° NE 04:10:00 18° NE 04:11:18 10° NE visible
30 Oct 8.3 05:47:19 25° NW 05:47:19 25° NW 05:51:02 10° NNE visible
31 Oct 9.4 04:29:46 20° NNE 04:29:46 20° NNE 04:31:14 10° NNE visible
31 Oct 8.9 06:07:04 15° NW 06:07:25 15° NW 06:10:07 10° N visible
01 Nov 9.3 04:49:26 19° NNE 04:49:26 19° NNE 04:50:51 10° NNE visible
02 Nov 9.3 05:09:01 15° N 05:09:01 15° N 05:10:14 10° N visible
